Miscellaneous Local Product
Issued by NWS North Platte, NE

Home | Current Version | Previous Version | Graphics & Text | Print | Product List | Glossary On
Versions: 1 2 3 4 5 6 7 8 9 10 11 12 13 14 15 16 17 18 19 20 21 22 23 24 25 26 27 28 29 30 31 32 33 34 35 36 37 38 39 40 41 42 43 44 45 46 47 48 49 50
000
AXUS43 KLBF 230110
MISLBF


WESTERN AND NORTH CENTRAL NEBRASKA HOURLY WEATHER ROUNDUP
NATIONAL WEATHER SERVICE NORTH PLATTE NE
700 PM CST WED FEB 22 2017

NOTE: "FAIR" INDICATES FEW OR NO CLOUDS BELOW 12,000 FEET WITH NO
SIGNIFICANT WEATHER AND/OR OBSTRUCTIONS TO VISIBILITY.

NOTE: STATIONS NOT REPORTING VARIABLES SUCH AS SKY/WEATHER OR
PRESSURE ARE PROVIDED BY RAWS AND APRS NETWORKS AND ARE NOT UNDER
NATIONAL WEATHER SERVICE QUALITY CONTROL.

...OBSERVATIONS IN AND NEAR THE EASTERN PANHANDLE OF NEBRASKA...

CITY           SKY/WX    TMP DP  RH WIND       PRES   REMARKS
PINE RIDGE     CLOUDY    43  32  65 N14       29.84R
CHADRON        CLOUDY    43  31  62 NE17      29.83R
ALLIANCE       CLOUDY    47  15  27 N9        29.79R
SIDNEY         CLEAR     42  15  33 N12       29.79S
CRESCENT LAKE    N/A     49  15  25 N7          N/A
$$

...OBSERVATIONS IN NORTHERN NEBRASKA AND FAR SOUTHERN SOUTH DAKOTA...

CITY           SKY/WX    TMP DP  RH WIND       PRES   REMARKS
WINNER         FAIR      44  37  76 N7        29.85R
VALENTINE      PTCLDY    45  34  65 N17G24    29.81R
THEDFORD       MOCLDY    48  27  43 E3        29.78S
AINSWORTH      CLEAR     46  31  56 N10       29.80R
O`NEILL        CLEAR     48  33  55 N5        29.78R
ORD            CLEAR     50  30  46 N6        29.75R
BROKEN BOW     CLEAR     49  28  44 N7        29.75R
VALENTINE NWR    N/A     49  26  40 N5G13       N/A
BUTTE            N/A     47  37  67 NW9         N/A
HALSEY           N/A     53  23  31 N3          N/A
CHAMBERS         N/A     46  24  42 CALM        N/A
EWING            N/A     47  32  56 CALM        N/A
$$

...OBSERVATIONS IN SOUTHWEST NEBRASKA AND FAR NORTHEAST COLORADO...

CITY           SKY/WX    TMP DP  RH WIND       PRES   REMARKS
HOLYOKE        FAIR      48  18  29 N8        29.77R
IMPERIAL       CLEAR     50  19  29 NE9       29.75S
OGALLALA       CLEAR     45  22  41 N9        29.78R
NORTH PLATTE   CLEAR     47  21  35 N6        29.77R
MCCOOK         CLEAR     52  23  32 NE6       29.74S
LEXINGTON      CLEAR     51  22  32 N7        29.76R
STAPLETON        N/A     49  23  36 CALM        N/A
GOTHENBURG       N/A     56  20  24 N3          N/A
CALLAWAY         N/A     49  21  33 N7          N/A
$$

...OBSERVATIONS IN CENTRAL LINCOLN COUNTY AREA...

CITY           SKY/WX    TMP DP  RH WIND       PRES   REMARKS
N.P. AIRPORT   CLEAR     47  21  35 N6        29.77R
N.P. DOWNTOWN    N/A     54  23  30 CALM        N/A
N.P. SOUTHEAST   N/A     53  22  29 CALM        N/A
N.P. HILLCREST   N/A     52  22  31 NE6         N/A
$$

...SOME OBSERVATIONS FROM AROUND THE REGION...

CITY           SKY/WX    TMP DP  RH WIND       PRES   REMARKS
LARAMIE        CLOUDY    27  24  89 N12       29.78S WCI  17
CHEYENNE       CLOUDY    35  24  64 N9        29.81R WCI  28
DENVER         MOCLDY    47  18  31 NE14      29.74R
AKRON          CLEAR     42  17  36 NE9       29.75F
SCOTTSBLUFF    CLOUDY    49  15  25 N8        29.80R
RAPID CITY     MOCLDY    36  28  73 N26G35    29.86R WCI  24
BISMARCK       CLOUDY    34  30  85 N5        29.96R WCI  30
PIERRE         CLOUDY    37  31  78 N17       29.86R WCI  27
SIOUX FALLS    CLOUDY    45  38  76 NW14      29.77R
OMAHA          CLEAR     59  33  37 NW13      29.72R
GRAND ISLAND   CLEAR     49  34  56 N7        29.75R
KANSAS CITY    CLOUDY    67  34  29 NW8       29.66R
WICHITA        PTCLDY    58  48  69 S9        29.69R
OKLAHOMA CITY  CLOUDY    66  40  38 SW5       29.71R
DALLAS         PTCLDY    74  47  38 S9        29.72S
AMARILLO       MOCLDY    71  30  21 W12       29.78S
DODGE CITY     CLEAR     60  27  28 E6        29.71S
HAYS             N/A     55  30  38 NE10      29.70F
GOODLAND       CLEAR     48  21  34 E7        29.73F
$$




USA.gov is the U.S. government's official web portal to all federal, state and local government web resources and services.